Wind_Speed
7 11 11 10 8 8 9 9 10 8 8 7 7 8 8 7 7 6 5 5 4 3 3 3 3 2 2 2 3 3 3 3 3 4 6 9 11 13 13 14 14 18 23 25 26 27 28 28 27 25 25 25 24 23 23 22 20 20 21 20 18 17 16 16 15 16 16 15 15 15 15 15 16 16 17 18 19 21 22 22 22 23 23 26 28
5 9 11 10 9 9 9 10 10 9 9 8 8 8 8 8 7 6 5 6 5 4 3 3 3 2 1 1 1 2 3 3 3 3 5 8 11 14 15 15 15 18 22 24 26 27 28 28 27 25 25 25 24 23 23 22 21 20 21 20 18 16 15 15 14 15 15 14 13 14 14 14 15 16 17 18 19 21 21 21 22 23 23 25 26
7 8 11 11 10 10 10 10 11 11 10 9 9 9 9 8 8 7 6 6 6 5 4 4 3 2 1 1 0 1 1 2 2 1 3 6 10 14 16 16 16 18 22 24 26 27 28 28 27 26 25 25 24 24 23 23 21 20 20 19 17 15 14 14 14 14 14 13 12 12 13 13 14 15 16 18 19 20 21 22 23 23 24 25 25
9 8 9 11 11 11 11 11 12 12 11 10 10 10 9 9 8 7 6 7 6 6 5 4 3 2 2 1 1 1 1 1 2 2 3 4 8 13 16 17 17 19 22 24 26 27 28 28 28 27 26 25 25 24 24 23 22 20 20 20 17 15 14 14 13 13 13 12 10 10 11 12 13 14 15 17 19 19 20 21 22 23 24 25 25
9 8 8 10 11 11 11 12 13 13 12 10 10 10 10 10 8 7 7 8 7 7 6 5 4 3 2 2 2 2 3 2 2 3 3 4 6 11 16 18 19 20 23 25 26 27 28 29 28 27 26 26 25 25 24 24 22 21 21 20 18 16 15 14 13 12 12 11 10 9 9 10 12 13 14 16 18 18 19 20 22 23 24 25 25
9 8 8 9 11 12 12 12 13 13 12 11 11 11 11 10 8 8 8 8 8 7 6 5 4 3 3 2 3 3 4 4 3 3 3 5 7 9 15 19 20 21 23 25 26 27 29 29 29 28 27 26 26 25 25 24 23 22 21 20 19 17 15 14 13 12 11 10 9 8 7 8 10 12 13 15 16 17 18 19 21 22 23 24 25
10 10 10 11 12 12 12 12 13 13 13 12 11 11 11 10 8 8 9 9 9 8 7 6 4 4 3 3 3 4 5 5 4 3 4 5 8 10 13 18 21 21 22 24 26 28 29 30 29 29 27 27 27 26 25 25 24 23 22 21 19 17 16 14 13 12 10 8 8 7 6 7 9 10 12 13 14 15 16 18 19 21 22 24 25
12 12 12 12 12 12 13 13 13 13 13 12 11 11 10 9 8 8 9 10 9 9 7 6 4 4 4 4 4 4 5 5 5 4 4 5 7 10 12 15 20 22 22 24 26 28 29 30 29 29 28 28 27 27 26 25 25 24 23 22 20 18 16 15 13 12 10 8 6 6 5 6 7 9 10 11 12 14 15 16 18 19 21 22 24
13 14 13 13 13 13 13 13 13 13 13 12 11 10 10 9 9 9 10 10 9 8 7 6 5 4 4 4 4 5 5 6 6 5 5 5 7 10 12 14 19 22 23 23 25 27 29 29 29 29 29 28 28 28 27 26 25 25 24 22 21 19 17 16 14 12 11 8 6 5 4 4 6 7 9 10 11 12 13 15 17 18 19 21 22
14 14 14 13 13 13 13 13 13 13 13 12 11 10 10 10 9 9 10 10 9 8 7 6 5 5 4 4 4 4 5 6 6 6 5 5 6 9 13 15 17 20 23 24 24 26 28 29 30 30 29 28 28 28 27 26 26 25 24 23 21 20 18 17 15 14 12 9 7 5 3 2 4 6 7 9 10 11 11 14 15 17 18 19 21
15 14 14 13 13 12 12 13 13 13 13 12 11 10 10 10 9 9 10 9 8 8 8 7 6 4 4 4 4 4 5 6 7 7 6 5 5 7 12 16 17 18 20 23 24 25 26 28 29 29 28 27 27 28 27 27 26 26 24 24 23 21 20 18 17 15 13 11 8 6 4 3 2 4 5 8 9 10 10 12 14 15 17 18 19
15 14 13 12 11 11 12 13 13 13 13 12 11 10 10 10 10 9 9 8 8 9 8 7 5 3 3 3 3 4 6 6 7 7 6 5 5 6 10 15 17 18 19 21 24 25 25 27 28 28 28 27 27 28 28 28 27 26 25 24 24 22 21 19 18 16 15 13 10 8 6 5 3 2 3 6 8 9 9 11 13 14 15 16 18
14 13 12 11 11 11 12 13 13 13 13 12 11 10 10 10 10 10 9 9 9 9 8 6 4 2 2 3 4 5 6 7 7 7 7 6 6 6 8 12 16 17 18 19 22 24 25 26 27 28 29 28 27 27 28 28 27 26 26 25 24 23 22 21 20 18 16 14 12 10 8 7 4 2 1 4 7 9 9 10 11 13 14 15 17
12 11 11 11 11 11 12 13 13 13 12 11 11 10 10 10 10 10 9 9 9 8 6 4 2 1 2 3 4 5 6 7 7 8 8 7 7 7 7 9 13 15 16 17 19 21 24 25 26 27 28 28 27 27 28 28 27 27 27 26 25 24 23 22 21 19 17 15 14 12 10 8 6 4 2 2 5 7 9 9 10 11 13 14 15
12 11 10 10 11 11 12 12 12 12 11 11 10 10 10 10 10 9 9 9 9 7 5 3 1 1 2 3 5 6 6 7 7 8 8 8 8 9 8 8 9 11 13 15 16 17 20 23 26 27 27 28 27 27 27 27 27 27 27 27 26 25 23 22 22 20 18 16 14 13 12 10 7 5 4 0 3 5 8 9 9 9 11 12 14
12 11 9 10 10 10 10 10 11 11 10 10 10 10 10 9 9 9 9 9 8 7 5 3 1 1 2 3 4 6 6 6 7 7 8 8 9 9 10 10 9 9 10 12 14 15 16 20 24 26 26 27 27 27 27 27 27 27 27 27 27 26 24 23 23 22 20 17 15 14 13 11 9 7 5 2 2 4 6 8 8 8 9 10 12
12 11 10 10 10 10 9 10 10 10 10 10 10 9 9 8 8 8 9 9 8 7 5 3 2 1 2 2 3 5 6 6 6 7 7 8 8 9 10 11 10 10 10 11 12 13 15 16 20 24 26 26 27 28 27 27 28 28 28 28 28 27 25 24 24 23 21 19 17 15 14 12 10 8 6 4 4 4 5 7 8 8 7 8 9
12 12 11 10 10 9 9 9 9 9 9 10 10 9 9 8 8 10 10 9 8 7 5 3 2 2 1 1 2 4 5 5 5 5 6 6 7 8 9 9 10 10 11 12 13 13 14 14 17 21 25 26 27 27 28 27 28 28 28 28 29 28 26 25 24 24 23 21 19 17 16 14 12 10 9 8 7 6 6 7 7 7 7 7 8
14 13 12 11 10 8 8 9 9 9 9 9 9 8 7 8 11 12 10 8 7 7 5 3 3 2 2 3 4 4 3 3 4 5 5 4 5 5 6 7 8 9 10 12 13 14 13 13 14 18 22 25 26 27 27 28 28 29 29 29 29 29 27 26 25 25 24 23 21 19 18 17 15 13 12 11 10 8 8 8 8 7 7 7 7
15 13 12 11 9 8 8 8 8 8 8 8 8 7 7 11 13 10 8 6 6 5 3 3 3 4 4 6 7 6 5 5 5 4 4 4 4 3 4 5 6 7 9 10 12 14 14 12 11 13 19 22 25 27 28 28 29 29 29 30 30 29 27 26 26 26 25 24 22 21 20 19 18 16 15 14 12 11 10 9 9 8 7 7 6
14 13 11 10 9 9 8 7 8 8 8 9 8 9 10 12 11 6 6 6 5 5 5 5 5 4 5 8 8 6 5 5 4 3 4 4 3 2 2 3 4 5 6 7 10 12 13 12 9 9 15 20 22 26 28 28 29 29 30 31 31 29 27 27 28 27 26 26 24 22 21 20 19 18 17 16 14 13 11 10 10 9 8 7 6
12 11 10 10 8 8 7 8 9 9 9 9 9 9 10 10 7 4 5 6 8 8 5 5 5 3 6 7 4 2 2 2 2 1 3 4 4 4 3 2 1 2 3 6 8 10 11 11 9 8 12 17 20 23 27 29 29 29 30 31 31 30 28 28 29 28 27 26 25 24 23 21 20 19 18 16 15 14 12 11 10 9 8 7 6
11 10 11 11 9 7 7 9 10 10 10 9 9 8 8 8 6 5 6 8 9 5 1 1 1 4 8 5 2 3 2 2 2 2 4 3 3 5 5 3 1 1 1 3 5 8 9 10 9 8 10 16 19 21 25 28 29 29 30 31 31 30 29 29 29 28 27 27 25 24 24 22 21 20 19 17 16 15 13 12 11 10 9 8 7
11 10 11 10 9 8 9 9 10 10 10 9 7 7 7 7 6 5 6 7 6 1 2 3 4 7 9 6 4 4 4 4 4 5 6 4 3 4 4 3 2 1 0 0 2 4 6 7 7 8 10 15 18 21 23 25 28 29 29 30 30 30 30 30 29 29 28 27 26 25 25 23 22 20 19 18 17 15 14 13 12 11 10 9 8
10 9 11 10 9 9 9 8 9 9 9 7 6 6 7 9 7 5 6 5 4 4 5 6 6 7 8 7 6 4 5 5 5 7 7 6 5 4 3 3 3 2 2 1 0 1 2 2 4 5 8 13 16 18 20 23 25 27 28 29 30 30 29 29 29 29 29 27 27 26 25 24 23 21 20 19 18 16 16 15 14 13 11 10 9
13 12 12 11 9 9 9 9 9 8 8 7 6 7 8 8 6 4 7 6 7 9 11 11 8 7 8 8 7 7 6 5 7 9 6 7 8 6 4 4 3 2 2 2 1 1 1 2 3 2 3 9 13 15 18 20 23 26 27 28 30 30 28 28 29 30 29 28 28 27 26 26 24 23 22 20 19 18 17 16 16 15 14 12 11
16 15 13 11 10 10 10 10 10 9 9 6 5 8 9 5 3 3 8 9 11 13 13 13 9 8 10 10 9 10 10 8 10 7 2 3 6 6 5 4 3 2 2 3 3 2 2 3 2 3 1 5 10 12 15 18 21 24 26 28 30 29 28 28 29 29 30 29 28 28 28 27 26 24 23 22 20 19 18 18 17 17 16 15 13
15 14 13 12 11 11 11 11 10 8 5 2 4 7 6 2 2 5 8 11 13 13 14 13 10 10 12 11 9 10 10 11 12 6 1 2 2 4 5 4 4 3 3 4 5 4 4 4 3 2 3 1 5 8 12 15 19 22 25 26 28 28 28 28 29 29 30 30 29 28 28 28 27 25 24 23 22 21 20 19 19 19 18 17 15
13 14 14 13 12 12 11 9 6 3 4 2 3 6 7 6 8 10 10 9 11 13 14 14 11 10 12 12 9 8 9 10 11 7 4 4 3 4 5 3 3 3 3 4 5 4 4 4 3 3 4 4 4 5 8 11 15 19 22 24 26 27 28 27 27 27 27 28 28 28 27 28 27 26 25 24 23 23 22 21 20 20 20 19 18
13 15 16 14 13 12 9 5 1 1 4 3 3 7 8 9 10 11 11 7 9 12 14 14 11 10 13 13 9 8 7 7 8 7 4 4 4 5 5 4 3 4 4 4 4 3 3 4 3 2 3 4 5 4 6 7 9 13 17 22 25 26 27 26 25 24 22 23 25 26 27 27 26 26 25 25 24 23 23 23 22 21 21 20 20
14 15 14 12 11 9 10 9 4 4 4 1 3 7 10 12 12 11 10 7 9 11 12 13 10 11 14 11 8 8 7 7 7 6 4 5 8 7 7 7 7 7 6 4 4 3 3 3 3 2 3 3 5 5 5 5 6 7 11 16 21 24 25 26 25 23 20 20 21 23 25 25 25 25 25 25 24 24 24 24 23 22 22 22 21
16 13 10 8 9 10 13 13 9 6 4 1 2 7 11 12 13 12 11 9 9 10 11 12 10 12 13 10 10 11 8 9 9 6 5 8 10 10 10 10 9 8 7 5 5 5 4 4 4 4 4 4 5 5 5 6 6 6 7 9 13 18 22 24 25 25 23 21 18 18 21 23 24 24 24 24 24 25 24 24 24 23 23 22 21
18 13 9 8 10 12 12 11 9 6 2 1 4 8 10 12 13 14 14 12 10 11 12 13 11 11 13 13 14 11 8 10 9 7 8 10 10 11 11 11 9 9 8 7 6 5 5 5 6 6 5 5 4 4 5 6 6 6 7 7 8 11 15 20 22 24 24 23 21 19 19 19 21 23 23 23 24 24 24 24 25 24 23 22 22
19 13 8 10 10 10 10 9 7 3 2 5 6 8 9 10 12 13 15 15 13 12 12 12 11 10 13 14 14 11 10 10 7 8 11 11 12 13 13 12 11 11 11 10 9 7 7 7 7 6 5 4 3 3 4 5 6 6 7 8 9 10 11 15 19 22 23 24 23 22 21 19 18 20 20 20 21 21 22 23 25 25 23 23 22
17 12 7 10 9 8 8 6 3 1 4 5 7 8 8 8 10 12 13 15 14 11 10 10 11 10 11 12 13 13 14 10 7 10 13 14 16 17 15 14 15 14 14 13 11 9 9 9 9 9 7 6 5 5 7 8 9 9 9 10 10 10 10 12 15 18 20 21 22 22 23 21 19 19 19 19 20 21 21 22 23 24 24 23 23
11 9 7 10 9 8 7 4 2 1 3 5 7 8 9 9 11 11 12 13 13 12 9 8 9 9 9 10 11 12 12 11 10 11 14 18 19 17 16 17 18 18 16 14 13 12 12 12 11 11 10 9 9 9 10 11 12 12 11 12 13 12 11 10 12 14 16 18 19 20 21 20 19 18 18 18 20 22 22 22 23 23 23 24 24
9 9 10 11 10 10 7 4 1 1 3 5 7 8 10 10 11 11 11 12 12 12 10 7 7 7 8 10 9 8 10 12 13 14 16 18 17 16 16 18 19 18 17 16 15 15 14 14 13 13 12 12 11 11 11 13 13 13 13 15 17 17 15 11 11 12 13 15 16 17 18 18 17 16 16 17 18 19 20 23 24 23 23 23 23
13 13 14 14 12 11 8 4 2 1 3 4 5 8 10 12 12 11 11 12 11 10 8 7 7 7 9 11 11 10 11 12 13 16 18 17 15 16 17 18 19 18 17 17 17 16 15 15 15 16 15 15 14 12 12 13 13 13 14 14 14 15 18 15 13 14 14 15 16 16 17 17 17 17 17 18 18 17 18 20 23 24 23 22 22
16 17 16 16 14 12 8 5 3 2 3 3 4 7 11 13 14 12 12 13 12 10 7 7 7 8 10 13 14 13 12 12 13 16 16 15 15 16 17 19 20 20 20 18 17 17 17 17 17 17 17 17 16 15 14 13 14 14 14 14 11 10 13 14 14 14 14 16 17 17 18 18 19 18 18 19 20 19 18 18 20 22 22 22 21
17 18 17 16 15 13 9 6 5 3 2 3 4 7 11 14 15 14 14 14 14 11 8 7 8 10 12 13 14 14 12 12 12 13 13 14 15 16 18 20 21 21 21 20 19 20 20 20 19 18 18 18 17 16 15 15 14 15 14 14 13 10 9 10 11 12 13 14 16 17 17 18 19 18 18 19 19 19 18 18 18 18 19 20 21
20 19 18 17 16 13 9 8 7 4 2 3 3 6 10 13 15 16 17 17 15 13 9 6 7 10 12 14 15 14 13 12 12 11 12 14 15 16 17 19 20 20 19 18 18 20 22 22 22 20 18 17 17 16 17 16 15 14 14 14 14 13 11 11 11 11 12 14 15 16 16 18 19 19 19 20 19 19 19 18 19 19 19 19 19
22 20 19 19 17 14 11 10 8 4 2 3 3 6 10 12 14 16 18 20 19 16 12 7 4 6 9 12 16 16 15 15 15 15 15 15 16 17 18 19 19 19 18 16 16 17 19 21 22 20 18 17 17 17 18 17 16 15 15 14 15 15 13 12 11 12 14 15 15 16 16 17 18 19 19 19 20 21 21 20 22 23 22 20 19
19 17 18 20 18 15 13 12 10 5 3 3 3 5 10 12 14 16 18 20 20 18 15 11 6 3 5 7 11 13 15 16 17 18 18 19 20 21 22 21 20 20 20 20 19 18 17 18 19 18 17 16 16 18 18 16 16 16 14 14 15 15 13 12 12 13 14 15 16 16 16 15 16 17 18 18 19 20 21 21 22 23 21 20 21
13 14 18 20 19 16 15 14 11 7 5 4 4 5 9 12 13 15 16 17 19 19 16 14 10 4 2 4 5 7 9 11 13 16 16 17 18 19 20 20 19 20 21 21 21 20 19 17 16 15 16 16 15 17 17 14 14 15 13 12 13 14 13 13 13 14 15 15 16 16 16 16 16 16 17 18 19 19 20 21 22 23 21 21 22
9 10 16 19 18 17 16 16 13 10 7 6 6 6 8 11 12 13 15 16 18 18 17 15 12 7 2 2 4 5 6 6 7 9 9 9 10 11 12 13 13 14 16 17 17 17 17 17 15 13 14 15 16 16 16 13 12 14 12 12 14 14 14 14 14 15 15 15 16 15 14 15 15 15 14 15 17 18 19 20 21 24 24 22 21
9 9 14 17 17 16 18 19 16 13 9 8 8 7 8 9 10 12 13 15 17 18 18 17 13 9 4 1 3 4 5 4 4 4 4 5 5 5 5 6 7 7 8 9 10 11 13 14 14 13 12 14 15 16 15 13 12 13 13 13 15 15 14 14 14 14 14 14 15 16 15 15 15 15 13 12 14 16 19 20 21 23 25 24 21
10 10 13 17 18 17 19 21 18 15 12 10 10 9 9 8 9 11 12 14 15 17 18 17 14 9 4 2 3 4 4 4 3 3 3 3 3 2 2 3 3 3 3 4 5 6 7 10 12 13 12 13 14 14 14 14 14 14 13 14 15 14 13 13 13 13 13 12 13 15 15 14 14 15 14 13 12 12 15 18 21 24 25 25 23
11 11 12 16 19 18 20 22 21 18 14 13 12 10 10 8 7 9 10 12 13 16 18 17 15 11 6 3 3 4 4 4 3 3 2 2 2 2 2 2 2 2 2 1 1 2 3 7 10 12 12 13 13 13 13 13 13 13 13 13 13 12 11 12 11 10 9 9 10 12 13 12 13 14 15 14 12 10 10 12 17 22 25 27 27
11 10 11 15 18 18 20 22 22 21 18 15 14 13 12 8 6 8 9 9 11 14 16 16 16 13 8 4 2 3 3 3 3 3 3 3 2 3 5 5 5 4 3 4 4 3 4 5 6 8 9 11 11 11 11 11 11 11 11 11 12 11 10 10 10 9 7 6 7 9 10 10 11 13 14 13 11 10 9 9 11 15 20 27 28
10 11 14 16 18 19 21 22 23 24 22 18 16 15 13 9 5 6 7 7 9 12 15 15 15 13 9 5 3 1 0 1 1 2 3 4 4 4 5 7 7 7 7 7 6 6 6 7 6 6 6 6 7 7 7 8 9 9 9 9 9 8 8 8 7 7 6 5 5 5 6 7 8 11 12 11 11 12 11 10 9 10 13 20 25
12 14 16 17 18 19 20 21 22 23 24 21 17 17 15 11 6 4 6 6 7 10 13 14 14 13 9 5 3 2 3 3 4 5 5 6 6 6 6 7 7 8 8 7 7 7 7 8 8 7 7 6 6 6 6 6 6 6 5 5 5 5 5 6 6 6 6 5 5 4 4 4 4 7 9 9 11 13 13 12 9 9 10 13 19
Wind_Direction
172 169 183 191 185 192 195 198 202 202 200 194 194 198 205 210 212 214 218 209 191 185 170 157 142 128 113 98 93 95 102 104 111 131 158 177 186 188 184 175 168 167 169 171 171 171 171 169 167 166 162 160 160 158 158 155 149 145 143 143 143 138 130 125 119 112 105 100 95 89 84 79 74 66 62 59 57 56 53 50 48 48 49 51 52
181 185 183 186 185 189 197 199 205 206 203 198 198 200 202 206 209 214 220 210 193 189 182 172 168 165 166 145 108 105 115 114 112 127 158 175 188 191 188 179 172 170 172 173 174 174 173 172 170 168 166 164 164 162 162 160 156 152 148 148 148 143 134 127 122 116 110 105 100 95 89 83 77 70 64 60 57 55 53 49 47 46 47 50 50
173 192 184 181 186 187 198 203 207 209 205 201 200 202 201 202 206 213 218 206 192 194 196 191 190 193 210 233 207 123 134 133 139 161 181 178 187 194 191 183 175 173 174 176 177 177 176 175 173 171 169 168 168 167 167 165 162 157 153 153 153 149 140 132 127 121 116 111 105 98 92 86 80 73 68 63 58 55 53 50 46 45 45 47 48
168 177 185 181 187 189 200 206 210 212 208 204 202 203 201 201 205 211 213 201 194 203 208 207 207 214 223 239 261 272 245 210 191 201 222 206 191 194 194 186 179 177 177 179 181 179 179 178 176 174 172 172 172 172 172 171 168 164 159 158 160 158 150 141 136 129 124 120 114 103 95 90 83 76 70 65 60 55 53 51 48 45 45 45 46
173 168 186 186 189 193 202 209 213 214 211 206 204 204 202 201 203 207 207 202 201 209 214 215 212 216 221 233 249 263 267 258 238 217 222 234 213 196 195 190 183 182 181 182 184 183 182 180 180 178 176 177 178 176 177 175 173 171 166 165 166 165 159 151 144 137 133 130 123 111 99 92 87 80 73 67 62 57 53 52 49 46 45 45 45
182 179 191 194 194 197 205 211 216 216 213 208 205 204 204 202 200 202 205 205 208 215 217 215 209 210 216 225 242 253 264 261 248 233 220 229 233 209 197 195 189 187 185 184 185 186 185 183 183 181 180 181 182 181 181 181 179 177 174 172 172 171 167 159 151 145 144 141 130 119 107 96 90 84 76 69 64 58 53 52 50 47 45 45 45
190 195 201 204 201 201 207 213 217 218 215 209 205 204 204 202 200 202 205 210 213 217 217 214 208 207 212 216 231 243 255 259 252 238 228 224 233 227 208 200 195 191 189 186 187 189 188 187 185 184 184 185 185 185 186 185 184 183 181 178 177 177 173 167 158 152 153 149 137 127 121 105 94 86 79 72 66 59 54 52 50 49 46 45 44
197 202 203 207 206 204 208 214 217 218 215 208 204 202 202 201 203 207 208 211 214 217 217 213 208 205 208 213 225 240 251 257 257 242 233 231 231 232 222 208 199 195 192 190 190 192 191 189 187 186 188 189 189 189 190 190 189 188 187 185 183 182 178 173 164 157 161 158 148 138 130 114 98 88 82 75 70 62 55 52 50 49 46 45 44
203 205 205 208 207 205 207 212 214 214 213 207 202 200 201 202 205 210 209 209 212 216 215 210 208 205 208 216 226 239 252 257 257 249 234 237 235 231 227 215 205 199 194 192 194 195 194 191 190 190 191 193 193 192 193 193 194 193 192 191 188 186 183 177 171 167 171 169 163 152 138 124 102 88 83 77 70 65 57 53 50 48 46 45 44
207 209 207 208 205 203 205 209 211 209 210 206 201 200 201 203 204 209 209 208 211 214 213 210 208 205 211 221 234 245 254 258 259 257 242 236 236 229 224 217 210 205 199 195 197 198 196 194 193 193 194 197 198 195 196 196 198 198 197 196 194 192 187 182 181 180 180 178 178 170 161 156 111 85 78 74 70 63 58 55 51 48 46 44 44
212 210 206 206 202 199 202 205 206 205 207 203 199 199 200 201 201 206 209 208 208 211 212 210 205 204 218 231 247 256 258 258 257 260 255 240 235 229 221 214 211 209 205 200 200 200 198 197 196 197 197 200 202 200 199 200 201 201 200 200 199 196 192 189 190 189 185 183 190 187 181 194 140 83 70 69 67 62 57 55 52 49 46 44 43
214 209 204 204 200 196 199 201 201 202 202 198 195 194 196 197 199 204 207 208 207 209 212 210 202 203 227 247 256 261 260 255 251 254 254 245 236 230 220 212 209 209 208 206 204 203 201 199 199 200 201 203 206 204 203 204 204 204 203 204 203 200 197 196 197 196 193 189 193 197 197 205 187 104 67 62 62 59 54 51 51 48 45 44 43
211 205 201 199 193 190 192 195 196 197 195 190 187 187 192 196 200 204 207 209 207 207 209 205 200 211 244 267 267 263 260 253 247 245 244 238 231 229 220 212 210 210 210 210 208 206 204 202 200 202 204 205 208 208 207 208 208 207 207 207 206 204 201 200 201 200 200 197 194 198 206 209 201 185 95 57 57 55 50 47 46 45 44 43 43
203 199 197 193 184 183 187 191 192 191 188 183 183 186 192 198 202 205 209 208 206 204 199 193 194 242 279 290 281 268 258 251 245 241 240 236 228 224 220 214 212 213 214 214 213 211 208 205 203 204 206 206 209 212 211 211 212 211 211 211 210 207 204 204 205 204 205 204 197 198 211 215 208 205 203 48 47 46 45 43 40 40 41 41 42
194 194 194 190 181 181 184 187 188 186 183 181 184 190 194 198 203 206 208 206 202 194 178 170 169 307 319 313 296 277 260 252 249 247 246 241 234 227 224 222 218 218 219 219 218 217 214 210 208 206 208 208 209 213 214 214 215 215 215 214 214 210 207 207 208 209 209 209 204 201 211 220 220 216 216 339 26 28 33 35 34 32 34 37 39
194 195 195 190 183 179 181 185 185 182 180 182 188 192 194 196 201 207 208 204 195 178 166 166 161 12 357 335 302 282 270 262 259 255 253 248 242 235 231 230 229 228 227 226 223 222 220 216 213 210 210 209 210 213 214 216 217 218 218 218 218 215 210 210 211 212 213 213 211 208 211 221 228 230 230 256 337 358 13 19 22 23 25 30 34
197 204 200 191 184 176 175 181 181 179 177 180 185 186 190 195 203 207 204 194 178 169 174 175 146 78 31 347 299 288 282 276 270 262 256 249 245 241 235 235 236 236 236 236 232 227 224 221 217 214 213 211 211 213 214 216 218 220 220 221 221 219 214 213 214 215 216 216 215 214 217 224 232 239 249 268 295 322 343 355 4 9 11 19 26
203 208 202 192 188 180 177 178 178 178 178 182 185 184 190 198 206 200 185 170 164 173 179 164 130 96 80 229 252 272 283 283 273 262 255 245 241 241 240 240 240 241 241 240 239 236 230 226 222 218 216 213 212 213 214 216 219 220 222 223 224 222 219 217 217 217 218 219 218 217 221 227 233 241 254 269 281 297 316 329 340 350 354 1 13
203 203 201 195 192 190 183 179 180 181 183 189 190 195 200 207 211 192 164 156 169 183 175 148 132 145 200 217 226 236 256 268 256 251 246 233 234 240 245 247 247 246 245 244 242 241 237 231 228 223 218 216 214 213 214 215 218 220 222 224 226 225 222 221 221 221 221 221 220 219 222 227 233 241 252 264 275 285 297 309 319 329 338 344 355
196 196 197 193 190 186 182 179 180 185 194 203 205 210 213 216 215 185 158 180 195 193 167 142 156 172 199 217 224 227 243 253 248 244 230 219 227 246 258 254 256 255 252 250 246 242 239 237 237 230 222 219 217 215 215 215 218 220 222 224 227 226 224 224 225 224 224 224 222 222 225 230 234 241 251 259 268 278 287 295 305 313 321 327 337
183 185 184 179 178 173 173 173 180 197 209 214 211 215 219 223 222 180 180 216 215 202 171 156 162 169 203 220 226 226 241 254 258 249 232 226 225 236 264 257 253 259 262 255 244 238 237 240 247 240 226 221 219 218 217 217 218 220 222 225 227 227 225 225 227 226 226 226 225 225 227 232 237 242 249 257 263 271 279 286 295 303 307 312 318
173 175 170 161 160 161 165 172 185 201 208 206 203 215 227 230 227 188 198 216 209 206 188 162 146 164 235 242 258 259 229 245 269 249 221 223 221 223 224 230 248 269 279 260 240 232 232 238 245 243 228 221 220 219 218 218 219 220 222 225 226 226 225 226 228 228 228 228 228 228 229 232 238 243 249 255 261 267 273 280 288 294 296 297 301
167 166 163 153 149 157 166 173 184 192 196 196 195 215 232 236 226 189 191 210 213 212 333 331 41 317 275 269 292 268 225 193 233 232 211 197 202 225 222 205 179 26 327 271 243 231 231 238 245 246 232 221 219 219 218 218 219 220 222 224 225 225 225 226 228 229 229 230 230 231 232 234 236 241 247 253 258 263 268 272 277 283 284 285 290
160 161 165 159 159 170 170 175 184 185 191 198 199 210 218 225 220 201 209 223 234 289 342 306 326 309 289 280 256 237 223 202 218 233 221 207 202 216 219 207 200 234 283 283 241 233 234 243 255 252 233 220 217 218 217 217 219 221 223 225 225 225 225 226 228 229 229 230 230 232 234 236 237 240 244 249 253 258 262 265 267 271 272 274 278
170 183 178 174 179 178 173 181 190 186 188 195 197 199 206 217 213 220 244 254 286 296 283 291 300 291 282 275 261 240 223 207 216 225 212 196 199 197 184 184 195 216 217 200 153 223 250 265 280 265 227 213 212 216 217 217 218 221 224 227 227 226 226 227 228 229 229 229 230 232 234 237 239 240 243 246 250 253 258 261 263 265 265 265 267
187 199 187 181 182 179 179 184 186 181 182 178 175 198 216 214 200 238 272 286 296 285 279 287 288 275 261 253 254 249 234 216 223 229 206 162 169 183 182 171 177 200 195 203 241 287 332 332 331 325 218 203 205 211 216 218 218 220 223 227 230 228 226 228 229 231 231 230 230 232 234 237 239 241 244 246 248 251 254 257 259 262 263 262 263
183 189 183 178 173 176 185 184 178 171 171 171 180 212 225 201 156 255 288 295 291 286 283 285 281 261 251 247 253 256 250 239 234 243 271 154 162 180 199 189 187 219 215 219 257 283 314 326 342 10 39 199 205 208 212 217 219 220 222 227 231 231 229 230 231 232 233 233 232 232 234 237 238 239 243 246 247 249 251 254 257 260 262 262 263
182 185 178 175 174 180 190 183 175 165 145 155 219 241 257 282 309 271 285 295 287 285 285 280 268 257 260 260 260 263 255 238 234 243 282 237 189 186 212 214 204 238 262 257 274 281 291 300 307 352 5 301 231 223 218 219 222 222 223 227 231 232 231 231 232 233 235 236 234 234 234 236 238 238 240 243 246 248 250 252 255 259 262 263 263
183 185 177 177 183 183 190 181 161 137 113 142 242 289 297 303 304 270 261 284 284 277 276 273 260 256 266 268 269 269 253 231 233 238 217 209 188 186 202 187 181 212 264 276 281 284 292 297 300 329 341 336 311 268 244 235 231 229 228 229 230 231 231 229 230 232 235 238 237 236 236 236 238 238 239 241 244 247 249 251 254 257 260 263 263
181 183 179 180 186 184 182 173 102 116 137 159 260 308 308 305 303 274 258 274 282 274 270 268 258 255 264 266 268 262 241 225 233 236 226 224 198 176 177 180 207 220 234 257 260 278 297 293 294 307 316 324 325 306 281 264 249 241 238 237 236 234 233 232 230 229 231 236 239 239 238 238 239 239 240 242 245 247 249 252 254 256 258 260 262
188 186 180 178 182 178 170 171 199 188 166 192 265 304 321 320 310 295 289 291 280 275 272 265 254 253 260 262 260 251 232 216 222 228 217 219 215 208 214 233 252 245 231 230 234 256 273 263 256 263 279 297 306 308 307 300 282 263 253 250 248 244 239 236 233 231 230 234 240 243 242 240 240 241 242 243 246 248 249 251 253 255 256 257 259
191 187 176 178 178 174 175 177 186 180 172 183 279 308 328 328 316 307 301 292 271 269 271 264 254 251 253 253 242 231 227 221 211 212 215 209 209 212 218 227 243 241 234 241 244 248 250 243 236 242 258 269 285 302 316 320 310 299 285 271 262 255 247 241 238 235 233 233 237 244 244 241 240 243 243 244 246 248 250 251 252 253 254 255 257
181 183 176 178 183 180 180 175 170 162 164 332 340 329 333 330 319 308 300 293 274 263 261 261 261 254 248 248 244 231 226 225 204 198 213 208 202 203 208 213 223 228 238 251 251 250 247 243 241 242 252 259 273 298 314 322 323 320 312 300 282 268 255 245 240 239 237 235 236 242 247 244 242 242 243 246 248 250 252 253 253 252 252 252 253
169 175 180 175 185 188 179 166 158 147 356 340 346 344 339 328 316 308 301 298 289 273 262 262 265 259 249 248 253 248 228 215 202 209 214 214 216 216 212 210 213 222 236 247 249 248 241 239 247 248 243 242 250 281 298 304 310 311 308 303 293 282 268 251 240 238 239 240 241 244 250 252 249 246 246 248 252 255 256 256 254 252 251 249 250
168 167 182 180 192 196 183 170 149 14 350 351 352 349 345 335 324 316 308 304 303 296 280 268 267 266 261 247 244 247 237 217 205 217 220 221 222 220 217 214 216 222 233 244 245 243 241 241 246 249 249 245 243 254 268 278 286 291 293 293 288 279 271 258 245 236 234 237 242 245 250 256 256 254 253 252 254 256 258 258 256 255 252 249 247
177 174 195 193 199 193 188 183 137 10 4 8 1 0 4 360 347 338 326 318 315 312 301 281 271 267 265 254 239 238 241 230 213 212 220 223 222 221 221 222 224 227 234 241 242 241 245 248 247 248 253 253 254 256 260 266 270 277 282 283 281 270 258 255 252 244 236 233 236 241 247 252 254 255 255 255 255 257 258 258 258 258 256 252 248
201 203 204 201 200 191 195 194 155 20 32 22 12 20 22 14 0 352 345 336 326 320 314 296 279 261 252 258 250 233 226 224 218 219 223 222 222 225 225 229 233 237 241 242 241 240 242 246 248 249 251 254 260 261 260 261 260 266 273 279 280 265 245 239 246 248 245 240 237 238 242 245 247 251 254 256 258 259 257 255 254 256 258 257 252
213 209 203 201 198 197 210 214 213 345 34 20 15 30 28 22 14 9 5 356 342 328 314 290 282 268 252 251 250 242 228 217 213 220 223 220 222 229 231 233 236 240 243 244 245 244 243 247 249 249 250 253 258 260 261 259 256 259 264 272 277 258 241 242 250 251 251 250 248 247 247 249 249 250 253 256 258 260 260 257 254 253 255 257 255
213 208 202 199 197 204 222 237 244 288 12 1 11 28 24 20 21 25 21 12 2 344 310 283 275 260 253 251 248 246 242 230 219 222 228 227 229 236 240 239 239 242 244 246 250 249 248 249 248 247 249 250 250 253 258 256 253 255 257 259 262 254 245 249 255 257 255 253 253 255 257 259 261 260 257 256 258 259 260 261 260 257 253 253 252
221 212 207 201 201 211 230 244 243 255 331 353 14 18 16 15 20 29 29 22 15 5 333 293 269 252 250 252 252 251 251 248 238 235 236 235 238 241 244 246 246 247 247 248 250 251 249 250 251 249 247 245 244 247 250 252 250 252 256 252 248 255 260 255 254 256 255 254 256 259 262 267 271 269 263 260 261 263 263 262 263 261 257 253 249
228 220 214 207 205 216 233 237 236 248 319 352 5 2 5 10 15 22 29 29 22 16 5 325 277 261 256 251 252 252 250 252 252 250 247 245 246 245 246 250 251 251 249 247 248 250 250 251 251 247 243 240 239 241 243 246 246 246 255 253 244 250 260 257 257 259 260 261 262 265 268 271 274 272 265 261 262 264 265 261 257 255 257 257 251
233 226 219 212 208 217 227 226 228 236 301 331 339 351 357 1 8 16 25 28 24 21 18 5 313 269 261 255 254 251 246 247 251 253 254 255 256 256 255 255 253 250 247 244 244 247 249 248 245 242 240 235 232 237 240 244 244 241 246 250 248 252 256 254 256 261 265 267 269 270 270 270 272 273 268 262 259 260 260 259 256 252 253 255 251
238 233 224 216 211 218 224 221 219 220 258 296 312 339 348 350 1 14 21 25 25 23 20 16 4 290 253 255 257 254 249 247 249 252 255 258 260 261 260 257 253 248 247 248 249 250 251 250 246 239 234 229 228 236 242 247 251 245 241 247 251 252 251 250 253 258 264 269 272 273 272 269 268 272 272 267 262 261 259 258 256 251 249 251 248
240 238 230 221 215 219 222 219 214 213 234 265 285 317 338 343 354 10 19 23 24 24 21 19 15 3 250 231 242 251 249 244 247 250 252 254 256 257 257 255 252 249 248 251 254 254 252 253 253 240 230 229 232 239 245 247 250 248 243 242 244 243 245 249 254 259 265 270 271 272 271 270 270 270 270 266 264 263 260 258 254 249 247 248 246
247 246 237 227 219 221 221 216 214 215 226 250 264 294 322 334 348 4 15 18 21 22 20 19 16 10 0 206 214 229 237 235 241 247 246 247 251 255 257 257 254 251 250 252 255 255 251 250 252 243 230 229 233 239 243 242 245 249 248 242 240 242 246 251 256 261 265 266 266 267 266 268 269 268 266 261 261 261 258 255 255 254 247 242 243
253 252 243 230 221 222 221 218 218 221 227 240 249 276 306 323 341 355 10 16 18 19 18 19 16 5 354 229 202 210 218 215 218 232 236 232 237 247 257 265 265 259 253 253 252 252 248 245 244 241 233 231 233 237 240 241 244 247 249 250 250 251 254 257 260 263 264 263 263 264 264 262 261 262 263 261 261 262 258 252 252 255 249 239 240
254 251 244 232 227 227 223 222 224 226 231 236 240 260 287 308 332 346 3 12 14 16 15 17 17 7 348 277 227 218 220 217 210 222 233 226 217 213 222 245 256 253 251 252 248 242 232 228 232 234 230 229 232 234 237 240 241 241 245 251 254 257 260 266 267 267 268 265 263 263 263 261 257 258 263 267 271 276 273 262 253 252 251 245 243
249 247 243 236 237 234 226 226 228 230 233 235 235 247 270 289 321 337 355 8 11 13 14 17 18 13 360 313 268 245 238 234 231 226 224 219 194 152 130 152 180 192 203 201 210 213 192 202 219 226 227 228 228 230 235 238 239 243 247 251 255 260 266 270 270 268 267 262 262 263 264 264 259 260 265 271 280 285 286 278 263 255 252 249 246
242 242 243 241 243 238 230 231 234 234 234 237 237 240 256 271 303 328 346 3 5 8 14 17 19 19 13 355 309 263 251 242 236 219 203 188 157 128 115 118 128 129 116 101 97 99 122 159 189 209 220 224 222 222 229 232 234 239 244 248 255 261 264 264 264 265 266 265 271 273 272 272 267 266 268 269 275 278 279 284 274 261 251 248 246
233 237 239 242 243 239 234 235 238 237 234 236 238 237 247 259 279 317 334 349 355 4 13 15 18 21 21 23 27 355 227 200 187 167 168 164 153 143 127 117 118 120 114 104 103 108 114 123 135 155 177 188 189 194 204 212 216 221 229 238 248 255 257 261 266 271 276 278 281 278 274 279 277 275 274 272 271 271 273 280 278 265 248 243 242
225 229 235 240 241 240 237 237 240 240 235 234 237 236 240 249 253 283 304 315 341 1 9 12 15 19 22 31 54 79 91 92 101 112 126 139 145 144 137 130 127 125 122 119 119 123 127 128 131 137 142 143 150 160 169 179 189 200 213 228 243 254 260 269 273 272 274 279 283 279 270 274 278 282 289 286 275 267 271 281 281 267 253 242 238
Height
3149 3149 3151 3152 3153 3154 3156 3157 3158 3159 3159 3160 3160 3160 3160 3160 3161 3161 3161 3161 3162 3162 3162 3162 3163 3163 3163 3163 3163 3163 3162 3162 3162 3162 3161 3161 3161 3161 3161 3161 3162 3162 3163 3164 3165 3166 3167 3168 3168 3169 3170 3171 3172 3173 3174 3174 3174 3175 3175 3175 3176 3176 3177 3177 3178 3178 3178 3179 3178 3178 3178 3178 3178 3177 3177 3176 3176 3175 3175 3174 3173 3171 3170 3168 3166
3149 3150 3150 3151 3152 3154 3156 3157 3158 3159 3159 3160 3160 3160 3160 3161 3161 3161 3161 3162 3162 3162 3162 3163 3163 3163 3163 3163 3163 3163 3163 3162 3162 3162 3161 3161 3161 3161 3161 3161 3162 3162 3163 3164 3165 3166 3167 3168 3169 3170 3170 3171 3172 3173 3174 3174 3175 3175 3176 3176 3177 3177 3178 3178 3179 3179 3179 3179 3179 3179 3179 3179 3179 3178 3178 3177 3177 3176 3176 3175 3174 3173 3171 3170 3168
3149 3150 3151 3151 3152 3154 3155 3157 3158 3158 3159 3159 3160 3160 3161 3161 3161 3161 3162 3162 3162 3162 3163 3163 3163 3163 3163 3163 3163 3163 3163 3162 3162 3162 3161 3161 3161 3161 3161 3161 3162 3162 3163 3164 3165 3166 3167 3168 3169 3170 3171 3171 3172 3173 3174 3174 3175 3176 3176 3177 3178 3178 3179 3179 3180 3180 3180 3180 3180 3180 3180 3180 3180 3179 3179 3179 3178 3178 3177 3177 3176 3174 3173 3171 3170
3149 3150 3151 3151 3152 3153 3155 3156 3157 3158 3159 3159 3160 3160 3160 3161 3161 3162 3162 3162 3162 3162 3163 3163 3163 3163 3163 3163 3163 3163 3162 3162 3162 3161 3161 3161 3161 3161 3161 3161 3162 3162 3163 3164 3165 3166 3167 3168 3169 3170 3171 3171 3172 3173 3174 3174 3175 3176 3177 3178 3178 3179 3180 3180 3180 3181 3181 3181 3181 3181 3181 3181 3180 3180 3180 3180 3179 3179 3179 3178 3177 3176 3175 3173 3172
3149 3150 3151 3151 3152 3153 3154 3156 3156 3157 3158 3159 3159 3160 3160 3161 3161 3162 3162 3162 3162 3163 3163 3163 3163 3163 3163 3163 3163 3162 3162 3162 3162 3161 3161 3161 3161 3161 3161 3161 3161 3162 3162 3163 3165 3166 3167 3168 3169 3170 3170 3171 3172 3173 3174 3174 3175 3176 3177 3178 3179 3180 3180 3181 3181 3182 3182 3182 3182 3182 3182 3182 3181 3181 3181 3181 3180 3180 3180 3179 3178 3177 3176 3175 3174
3149 3150 3151 3151 3152 3153 3154 3155 3156 3157 3158 3158 3159 3159 3160 3161 3161 3162 3162 3162 3163 3163 3163 3163 3163 3163 3163 3163 3163 3162 3162 3162 3161 3161 3161 3161 3160 3160 3161 3161 3161 3161 3162 3163 3164 3166 3166 3167 3168 3170 3170 3171 3172 3173 3174 3174 3175 3176 3177 3178 3179 3180 3181 3181 3182 3182 3182 3182 3183 3183 3183 3182 3182 3182 3181 3181 3181 3181 3181 3180 3180 3179 3178 3177 3175
3149 3150 3151 3151 3151 3152 3153 3154 3155 3156 3157 3158 3158 3159 3159 3160 3161 3162 3162 3162 3163 3163 3163 3163 3163 3163 3163 3163 3162 3162 3162 3161 3161 3161 3161 3161 3160 3160 3160 3160 3160 3161 3162 3163 3164 3165 3166 3167 3168 3169 3170 3170 3171 3172 3173 3174 3175 3176 3177 3178 3179 3180 3181 3182 3183 3184 3183 3183 3184 3183 3183 3183 3183 3182 3182 3182 3182 3182 3182 3182 3181 3180 3179 3178 3177
3148 3149 3150 3151 3151 3152 3152 3154 3155 3156 3156 3157 3157 3158 3159 3160 3161 3161 3162 3162 3163 3163 3163 3163 3162 3162 3163 3162 3162 3162 3162 3161 3161 3161 3161 3161 3160 3160 3159 3160 3160 3161 3162 3163 3163 3164 3165 3167 3168 3169 3170 3170 3171 3172 3173 3174 3174 3176 3177 3178 3179 3180 3181 3182 3183 3184 3184 3185 3185 3184 3184 3184 3184 3183 3183 3183 3183 3183 3183 3183 3182 3181 3180 3180 3178
3147 3148 3149 3149 3150 3151 3152 3153 3154 3155 3156 3157 3157 3158 3159 3160 3160 3161 3162 3162 3162 3162 3162 3162 3162 3162 3162 3162 3162 3162 3162 3161 3161 3161 3161 3161 3160 3160 3159 3159 3160 3160 3161 3162 3163 3164 3165 3167 3168 3169 3169 3170 3171 3171 3172 3173 3174 3175 3176 3178 3179 3180 3181 3182 3184 3185 3185 3185 3186 3185 3185 3185 3185 3185 3184 3184 3184 3184 3184 3184 3183 3183 3182 3181 3180
3146 3147 3147 3148 3149 3150 3150 3151 3152 3154 3155 3156 3157 3158 3158 3159 3160 3161 3162 3162 3162 3162 3162 3162 3162 3162 3162 3162 3162 3162 3162 3162 3161 3161 3161 3161 3160 3160 3159 3159 3159 3160 3161 3162 3163 3164 3165 3167 3168 3169 3169 3170 3170 3171 3172 3173 3174 3175 3176 3178 3179 3180 3181 3182 3183 3184 3185 3186 3186 3186 3186 3186 3186 3186 3185 3185 3185 3185 3185 3185 3184 3184 3183 3182 3181
3145 3145 3146 3147 3148 3149 3149 3150 3151 3153 3155 3156 3156 3157 3158 3159 3160 3161 3161 3161 3161 3161 3161 3161 3161 3161 3162 3162 3162 3162 3162 3162 3161 3161 3160 3160 3160 3160 3159 3159 3159 3160 3160 3161 3162 3163 3165 3166 3168 3169 3170 3170 3170 3171 3172 3172 3173 3175 3176 3178 3179 3180 3181 3182 3183 3184 3185 3186 3187 3187 3187 3187 3187 3186 3187 3186 3186 3186 3186 3186 3185 3185 3185 3184 3183
3144 3145 3146 3147 3148 3148 3149 3150 3151 3152 3154 3155 3156 3156 3157 3158 3159 3160 3161 3161 3160 3160 3160 3161 3161 3161 3161 3161 3161 3161 3161 3161 3161 3161 3160 3160 3160 3160 3160 3159 3159 3159 3160 3161 3161 3163 3164 3166 3167 3169 3170 3170 3170 3171 3172 3172 3173 3174 3176 3177 3178 3180 3181 3181 3182 3183 3185 3186 3187 3187 3187 3187 3187 3187 3187 3187 3187 3187 3187 3187 3186 3186 3186 3185 3184
3143 3144 3146 3146 3147 3147 3148 3149 3151 3152 3154 3155 3155 3156 3157 3158 3158 3159 3160 3160 3160 3160 3160 3161 3161 3161 3161 3161 3161 3161 3161 3161 3161 3161 3161 3160 3160 3160 3160 3160 3160 3159 3159 3160 3161 3162 3163 3165 3166 3168 3169 3169 3169 3170 3171 3171 3172 3174 3175 3176 3178 3179 3180 3181 3182 3183 3184 3186 3187 3187 3187 3187 3188 3188 3188 3188 3188 3188 3188 3187 3187 3187 3187 3186 3185
3143 3144 3145 3146 3146 3147 3148 3150 3151 3153 3154 3154 3155 3156 3156 3157 3158 3159 3159 3159 3159 3159 3160 3160 3160 3160 3160 3161 3161 3161 3161 3161 3161 3161 3161 3161 3161 3161 3160 3160 3160 3160 3160 3160 3161 3162 3163 3164 3165 3167 3167 3169 3169 3169 3171 3171 3172 3173 3174 3175 3177 3178 3180 3181 3181 3182 3184 3185 3187 3187 3187 3187 3188 3188 3188 3189 3189 3189 3189 3188 3188 3188 3188 3188 3187
3142 3144 3145 3145 3146 3147 3149 3150 3152 3153 3153 3154 3155 3156 3157 3157 3158 3159 3159 3158 3158 3159 3159 3160 3160 3160 3160 3160 3160 3160 3160 3161 3161 3161 3161 3161 3161 3160 3160 3160 3160 3160 3160 3160 3161 3162 3163 3163 3164 3166 3166 3168 3169 3169 3170 3171 3172 3173 3174 3175 3176 3178 3180 3181 3181 3182 3183 3185 3186 3187 3187 3187 3188 3188 3189 3189 3189 3190 3189 3189 3189 3189 3189 3188 3188
3142 3143 3144 3146 3147 3148 3150 3151 3152 3152 3153 3154 3155 3156 3157 3157 3158 3158 3158 3158 3158 3159 3159 3160 3159 3159 3159 3160 3160 3159 3160 3160 3160 3160 3160 3160 3160 3160 3160 3160 3160 3160 3160 3161 3161 3162 3162 3163 3164 3165 3166 3167 3168 3168 3169 3170 3171 3172 3173 3174 3175 3177 3179 3180 3181 3182 3183 3184 3185 3186 3187 3187 3187 3188 3189 3189 3189 3190 3190 3190 3190 3190 3190 3189 3189
3141 3142 3143 3145 3147 3149 3150 3151 3151 3152 3153 3154 3155 3156 3157 3157 3158 3158 3157 3157 3158 3159 3159 3159 3159 3158 3158 3159 3159 3159 3159 3159 3160 3160 3159 3159 3159 3159 3160 3160 3160 3160 3160 3161 3161 3161 3162 3162 3163 3164 3164 3166 3167 3167 3168 3169 3170 3171 3172 3173 3174 3176 3179 3180 3180 3181 3182 3183 3184 3186 3186 3186 3187 3188 3188 3189 3189 3190 3190 3190 3190 3190 3190 3190 3189
3140 3141 3143 3145 3146 3148 3149 3150 3151 3152 3153 3154 3155 3156 3156 3157 3157 3156 3156 3157 3158 3159 3158 3158 3158 3157 3157 3157 3158 3157 3158 3158 3158 3158 3158 3158 3159 3159 3159 3160 3160 3160 3160 3160 3160 3160 3161 3162 3162 3163 3163 3164 3165 3166 3167 3168 3169 3170 3171 3172 3173 3175 3178 3179 3179 3181 3182 3183 3184 3185 3185 3186 3186 3187 3188 3188 3189 3189 3190 3190 3190 3191 3191 3190 3190
3140 3141 3143 3144 3146 3147 3148 3150 3151 3152 3153 3154 3155 3156 3156 3157 3155 3154 3156 3158 3158 3158 3158 3158 3157 3157 3157 3157 3157 3157 3157 3157 3157 3158 3158 3158 3158 3159 3159 3159 3160 3160 3160 3160 3160 3160 3160 3161 3162 3162 3162 3163 3164 3165 3166 3167 3167 3169 3170 3170 3171 3174 3177 3178 3179 3180 3181 3182 3183 3184 3184 3185 3186 3186 3187 3188 3188 3189 3189 3190 3190 3191 3191 3191 3190
3139 3141 3142 3144 3145 3147 3148 3149 3151 3152 3153 3154 3155 3156 3156 3154 3153 3154 3157 3158 3158 3158 3158 3157 3157 3157 3157 3156 3156 3156 3157 3157 3157 3158 3158 3158 3158 3158 3159 3159 3159 3159 3159 3160 3160 3160 3160 3161 3161 3162 3162 3162 3163 3164 3165 3165 3166 3167 3168 3169 3170 3173 3176 3177 3177 3178 3179 3180 3182 3183 3183 3184 3185 3186 3186 3187 3188 3188 3189 3189 3190 3190 3190 3191 3190
3138 3139 3141 3143 3144 3146 3147 3149 3150 3151 3152 3153 3154 3154 3154 3153 3153 3156 3158 3157 3157 3156 3156 3156 3156 3157 3156 3155 3155 3156 3157 3157 3158 3158 3158 3158 3158 3158 3158 3158 3157 3158 3158 3159 3159 3159 3159 3160 3161 3161 3161 3161 3162 3163 3163 3164 3165 3166 3167 3167 3169 3172 3174 3175 3176 3177 3178 3179 3180 3181 3182 3183 3184 3184 3185 3186 3187 3187 3188 3189 3189 3190 3190 3190 3190
3136 3138 3139 3141 3143 3144 3146 3147 3148 3149 3150 3152 3153 3153 3152 3152 3154 3156 3156 3155 3154 3153 3154 3156 3157 3157 3155 3155 3156 3156 3157 3157 3157 3157 3157 3157 3157 3157 3157 3156 3156 3156 3157 3157 3158 3158 3159 3159 3160 3160 3160 3160 3160 3161 3162 3163 3164 3165 3165 3166 3168 3170 3172 3173 3174 3176 3177 3178 3179 3180 3181 3182 3182 3183 3184 3185 3186 3187 3187 3188 3188 3189 3190 3190 3190
3136 3137 3138 3140 3142 3144 3145 3146 3147 3148 3149 3151 3152 3152 3152 3152 3153 3154 3154 3153 3152 3154 3157 3158 3159 3158 3156 3158 3158 3157 3156 3156 3157 3156 3155 3155 3155 3155 3155 3155 3156 3156 3156 3156 3157 3157 3158 3158 3159 3159 3159 3158 3159 3159 3160 3162 3163 3163 3164 3164 3166 3169 3170 3172 3173 3174 3176 3177 3178 3179 3180 3181 3181 3182 3183 3184 3185 3185 3186 3187 3187 3188 3189 3189 3190
3136 3137 3138 3140 3142 3143 3145 3146 3147 3148 3149 3150 3152 3152 3152 3152 3152 3153 3152 3152 3153 3156 3157 3157 3159 3158 3157 3159 3158 3157 3156 3156 3156 3156 3155 3154 3154 3153 3154 3155 3156 3156 3156 3156 3156 3157 3157 3157 3158 3158 3157 3157 3157 3158 3159 3160 3161 3162 3162 3163 3165 3167 3169 3170 3171 3172 3174 3176 3177 3178 3179 3179 3180 3181 3182 3182 3183 3184 3185 3185 3186 3187 3188 3188 3189
3136 3138 3139 3140 3142 3144 3146 3147 3147 3148 3149 3150 3151 3152 3151 3151 3152 3152 3151 3152 3154 3155 3155 3156 3157 3157 3157 3158 3158 3157 3156 3156 3155 3155 3155 3155 3153 3152 3153 3155 3155 3155 3156 3156 3156 3157 3157 3157 3157 3157 3156 3156 3156 3157 3158 3159 3160 3161 3162 3162 3163 3166 3167 3168 3169 3171 3172 3174 3175 3177 3177 3178 3179 3180 3180 3181 3182 3183 3184 3184 3185 3186 3186 3187 3188
3136 3138 3139 3141 3143 3145 3146 3147 3148 3148 3149 3150 3151 3151 3150 3151 3152 3153 3152 3152 3154 3154 3154 3155 3155 3155 3155 3155 3156 3157 3156 3156 3154 3153 3153 3154 3154 3152 3152 3154 3155 3156 3156 3156 3156 3157 3157 3157 3157 3156 3156 3156 3156 3157 3157 3158 3159 3160 3161 3161 3161 3164 3166 3167 3168 3169 3171 3172 3174 3175 3176 3176 3177 3178 3179 3180 3180 3181 3182 3183 3184 3184 3185 3186 3187
3136 3138 3139 3141 3143 3144 3146 3147 3147 3147 3149 3151 3150 3148 3149 3152 3154 3154 3152 3153 3153 3153 3153 3153 3153 3153 3153 3153 3155 3156 3156 3156 3154 3152 3151 3152 3153 3153 3154 3155 3156 3156 3157 3157 3157 3157 3157 3156 3156 3156 3156 3156 3156 3156 3157 3158 3159 3159 3159 3159 3160 3163 3165 3166 3166 3168 3169 3170 3172 3173 3174 3174 3176 3177 3177 3178 3179 3180 3181 3181 3182 3183 3184 3185 3186
3136 3137 3139 3141 3142 3144 3144 3146 3148 3149 3151 3152 3149 3147 3149 3153 3155 3154 3153 3152 3151 3151 3151 3151 3152 3152 3151 3152 3153 3154 3155 3155 3154 3153 3152 3152 3153 3153 3155 3156 3156 3157 3157 3158 3158 3157 3157 3156 3156 3156 3156 3156 3156 3156 3157 3157 3158 3158 3158 3158 3159 3161 3163 3164 3165 3166 3167 3168 3170 3171 3172 3173 3174 3175 3176 3177 3178 3178 3179 3180 3181 3182 3183 3184 3185
3136 3137 3139 3140 3141 3142 3143 3146 3150 3152 3153 3152 3150 3149 3150 3152 3152 3153 3153 3151 3150 3150 3149 3150 3151 3151 3150 3151 3152 3152 3153 3153 3153 3152 3152 3152 3153 3153 3155 3156 3156 3157 3157 3158 3158 3157 3156 3156 3156 3156 3156 3156 3156 3156 3157 3157 3158 3158 3158 3158 3159 3159 3160 3162 3163 3165 3166 3166 3167 3169 3170 3171 3172 3174 3175 3176 3176 3177 3178 3179 3180 3180 3181 3182 3183
3135 3136 3138 3139 3140 3142 3145 3148 3151 3152 3152 3151 3150 3149 3149 3149 3149 3151 3150 3148 3149 3149 3149 3149 3151 3151 3149 3150 3152 3151 3151 3152 3151 3150 3151 3152 3151 3152 3154 3155 3156 3156 3157 3157 3157 3156 3155 3155 3155 3155 3155 3155 3156 3156 3156 3157 3157 3158 3158 3158 3158 3159 3159 3160 3162 3163 3164 3164 3165 3167 3168 3170 3171 3172 3173 3174 3175 3176 3177 3177 3178 3179 3180 3181 3182
3134 3135 3137 3138 3140 3144 3146 3148 3150 3150 3150 3151 3150 3148 3148 3147 3147 3147 3147 3147 3148 3149 3148 3148 3150 3150 3147 3149 3151 3150 3150 3150 3150 3149 3150 3151 3150 3151 3152 3153 3154 3155 3156 3156 3155 3155 3154 3154 3154 3154 3154 3155 3155 3155 3155 3156 3156 3157 3157 3157 3158 3158 3159 3160 3161 3162 3162 3163 3164 3165 3166 3168 3169 3171 3172 3173 3174 3174 3175 3176 3177 3177 3178 3179 3180
3133 3134 3136 3138 3140 3143 3146 3147 3149 3149 3149 3150 3150 3149 3147 3146 3144 3144 3145 3146 3147 3147 3146 3146 3148 3149 3146 3147 3148 3148 3148 3149 3148 3148 3148 3150 3150 3150 3150 3151 3153 3154 3154 3155 3155 3154 3154 3154 3153 3153 3154 3154 3153 3153 3154 3155 3155 3156 3157 3157 3157 3157 3158 3159 3160 3161 3162 3162 3163 3163 3165 3166 3168 3169 3170 3171 3172 3172 3173 3174 3175 3176 3176 3177 3178
3131 3134 3136 3138 3140 3143 3145 3147 3148 3148 3149 3149 3150 3149 3147 3145 3144 3143 3143 3144 3145 3144 3144 3144 3146 3147 3145 3143 3144 3144 3146 3147 3148 3148 3147 3148 3149 3149 3149 3151 3151 3152 3153 3153 3154 3154 3154 3154 3153 3152 3152 3152 3152 3152 3153 3154 3154 3155 3155 3156 3156 3156 3156 3158 3159 3160 3160 3161 3162 3162 3163 3165 3166 3167 3168 3169 3170 3170 3171 3172 3173 3174 3174 3175 3176
3130 3134 3136 3138 3140 3141 3144 3146 3147 3147 3148 3147 3147 3147 3146 3145 3144 3143 3142 3142 3142 3142 3143 3142 3143 3144 3142 3141 3143 3143 3144 3146 3147 3148 3147 3147 3148 3148 3149 3150 3150 3151 3151 3153 3153 3153 3153 3152 3152 3151 3151 3151 3151 3151 3152 3153 3154 3154 3155 3155 3155 3155 3155 3155 3156 3157 3158 3159 3160 3161 3162 3163 3164 3166 3167 3168 3168 3169 3169 3170 3171 3171 3172 3173 3174
3131 3132 3136 3138 3139 3141 3143 3145 3146 3146 3146 3146 3146 3146 3146 3145 3144 3143 3142 3140 3139 3140 3140 3141 3140 3140 3140 3140 3141 3141 3142 3144 3144 3147 3148 3148 3147 3148 3149 3149 3149 3150 3150 3152 3152 3152 3152 3151 3150 3150 3149 3149 3150 3151 3152 3152 3153 3153 3154 3154 3154 3154 3154 3154 3154 3155 3156 3157 3158 3159 3160 3161 3162 3164 3165 3166 3166 3167 3168 3168 3169 3169 3170 3171 3171
3132 3133 3136 3138 3139 3141 3143 3144 3144 3144 3144 3144 3144 3144 3144 3143 3142 3141 3140 3138 3137 3136 3137 3138 3138 3138 3138 3138 3138 3139 3140 3141 3142 3144 3146 3146 3146 3147 3148 3148 3148 3149 3149 3150 3151 3151 3150 3149 3149 3148 3148 3148 3149 3150 3151 3151 3152 3152 3153 3153 3153 3153 3154 3153 3153 3153 3154 3155 3156 3156 3157 3158 3159 3161 3162 3163 3164 3164 3165 3166 3167 3167 3168 3169 3169
3133 3134 3136 3137 3139 3141 3142 3142 3142 3143 3143 3143 3143 3143 3143 3142 3141 3140 3138 3136 3135 3134 3134 3135 3137 3137 3138 3137 3137 3138 3139 3140 3141 3142 3142 3143 3144 3145 3146 3147 3147 3147 3148 3148 3149 3149 3149 3148 3147 3147 3147 3147 3148 3149 3150 3150 3151 3151 3151 3151 3151 3151 3152 3153 3152 3152 3152 3153 3154 3154 3155 3156 3157 3158 3159 3160 3161 3162 3163 3164 3165 3165 3166 3166 3167
3133 3135 3137 3138 3139 3141 3141 3141 3141 3142 3142 3143 3143 3143 3142 3142 3141 3139 3137 3135 3133 3132 3132 3132 3134 3136 3137 3137 3137 3138 3139 3140 3141 3141 3140 3141 3142 3143 3144 3145 3145 3146 3146 3146 3147 3147 3147 3146 3146 3145 3146 3146 3147 3148 3149 3149 3150 3150 3150 3151 3150 3149 3150 3151 3151 3152 3152 3152 3152 3153 3153 3154 3154 3155 3156 3157 3158 3159 3160 3161 3162 3163 3164 3164 3165
3134 3136 3137 3138 3139 3140 3141 3141 3141 3142 3142 3143 3143 3142 3142 3141 3140 3139 3138 3135 3133 3131 3130 3130 3132 3133 3134 3136 3136 3137 3138 3138 3139 3140 3139 3140 3142 3142 3143 3143 3144 3144 3144 3144 3144 3144 3144 3144 3144 3144 3145 3146 3146 3147 3147 3148 3149 3149 3149 3150 3149 3149 3149 3150 3150 3151 3151 3151 3151 3151 3151 3151 3152 3153 3154 3154 3155 3156 3158 3158 3159 3160 3161 3161 3162
3134 3135 3136 3137 3138 3139 3140 3140 3140 3141 3142 3142 3142 3142 3141 3140 3140 3139 3138 3136 3133 3131 3130 3129 3130 3130 3131 3133 3133 3135 3136 3136 3136 3137 3138 3140 3141 3142 3142 3142 3142 3142 3142 3143 3143 3142 3142 3142 3142 3143 3143 3144 3145 3146 3146 3147 3147 3148 3148 3149 3149 3149 3149 3149 3150 3150 3150 3150 3150 3150 3150 3150 3150 3151 3151 3152 3153 3154 3155 3155 3156 3157 3158 3159 3159
3133 3134 3135 3136 3137 3138 3139 3139 3140 3140 3141 3141 3141 3141 3141 3140 3139 3139 3137 3136 3134 3133 3131 3130 3129 3129 3129 3130 3131 3133 3134 3134 3134 3135 3136 3138 3139 3140 3140 3140 3141 3140 3140 3141 3141 3141 3141 3141 3141 3141 3142 3143 3144 3145 3145 3145 3146 3146 3147 3148 3148 3148 3148 3149 3149 3149 3149 3149 3149 3149 3149 3149 3148 3149 3149 3150 3151 3152 3152 3153 3154 3154 3155 3156 3157
3131 3132 3134 3135 3136 3137 3137 3138 3139 3139 3140 3140 3141 3141 3140 3140 3139 3137 3136 3135 3134 3133 3132 3131 3130 3129 3129 3129 3130 3131 3133 3134 3134 3134 3135 3135 3136 3137 3138 3138 3139 3139 3139 3139 3140 3140 3139 3139 3139 3140 3141 3142 3143 3143 3143 3143 3144 3144 3145 3146 3146 3147 3148 3148 3148 3148 3148 3148 3148 3148 3148 3148 3147 3147 3147 3148 3149 3149 3150 3151 3151 3151 3151 3153 3155
3129 3131 3132 3134 3135 3135 3136 3137 3137 3138 3138 3139 3140 3140 3140 3139 3138 3136 3134 3134 3133 3132 3132 3131 3131 3131 3130 3129 3129 3130 3132 3133 3133 3133 3134 3134 3134 3134 3134 3135 3136 3136 3136 3137 3138 3138 3138 3137 3137 3138 3139 3140 3141 3142 3141 3142 3143 3144 3144 3145 3145 3146 3147 3147 3147 3147 3147 3146 3146 3146 3146 3146 3146 3146 3145 3145 3146 3147 3148 3148 3149 3149 3149 3150 3151
3128 3129 3130 3131 3133 3133 3134 3135 3136 3136 3137 3138 3138 3139 3139 3138 3137 3136 3134 3134 3133 3132 3131 3131 3130 3131 3131 3130 3130 3130 3130 3131 3131 3131 3132 3133 3133 3132 3132 3132 3133 3133 3134 3134 3135 3136 3136 3136 3136 3136 3137 3138 3139 3140 3140 3141 3142 3143 3143 3143 3144 3145 3145 3146 3145 3145 3145 3145 3145 3145 3145 3145 3145 3144 3144 3143 3144 3145 3145 3146 3147 3148 3148 3148 3149
3126 3127 3127 3129 3131 3132 3133 3134 3134 3135 3136 3136 3137 3138 3138 3138 3137 3136 3135 3134 3133 3132 3131 3130 3129 3130 3130 3130 3130 3130 3130 3130 3130 3130 3130 3130 3130 3130 3130 3130 3130 3131 3131 3132 3132 3133 3133 3134 3135 3135 3136 3137 3138 3139 3139 3140 3141 3142 3141 3142 3143 3143 3144 3144 3144 3143 3143 3143 3143 3143 3143 3143 3143 3143 3142 3142 3141 3142 3142 3143 3144 3144 3146 3147 3148
3123 3124 3125 3127 3129 3130 3131 3132 3132 3133 3134 3135 3136 3137 3137 3137 3137 3136 3135 3134 3133 3132 3131 3130 3129 3129 3129 3129 3130 3130 3130 3130 3130 3129 3129 3129 3129 3129 3128 3128 3128 3128 3129 3129 3130 3130 3131 3132 3133 3134 3135 3136 3137 3138 3138 3139 3140 3140 3140 3141 3141 3142 3142 3143 3143 3142 3142 3142 3142 3142 3142 3142 3142 3141 3141 3140 3140 3139 3139 3140 3141 3141 3142 3144 3146
3121 3122 3123 3125 3128 3129 3130 3130 3131 3132 3133 3134 3135 3135 3136 3136 3136 3135 3135 3134 3133 3133 3131 3130 3129 3128 3128 3128 3129 3129 3129 3129 3129 3129 3128 3128 3128 3128 3128 3127 3127 3127 3127 3128 3128 3129 3129 3130 3131 3132 3133 3134 3135 3136 3137 3138 3138 3138 3139 3139 3140 3140 3141 3141 3141 3141 3141 3141 3141 3141 3140 3140 3140 3140 3139 3139 3138 3138 3138 3137 3138 3138 3139 3141 3142
3120 3121 3122 3124 3126 3128 3129 3129 3129 3130 3131 3132 3133 3134 3134 3135 3135 3134 3134 3134 3133 3133 3132 3130 3129 3128 3127 3127 3127 3127 3128 3128 3128 3128 3128 3127 3127 3128 3127 3127 3127 3126 3127 3127 3127 3128 3128 3128 3129 3130 3132 3133 3134 3135 3136 3137 3137 3137 3138 3139 3139 3139 3140 3140 3140 3140 3140 3139 3139 3139 3139 3139 3139 3139 3138 3138 3138 3138 3137 3136 3136 3136 3137 3137 3138
3119 3120 3121 3123 3124 3126 3128 3128 3128 3129 3130 3130 3131 3131 3132 3133 3134 3133 3133 3133 3133 3133 3132 3131 3130 3128 3127 3127 3126 3126 3126 3127 3127 3127 3127 3127 3127 3127 3127 3127 3127 3127 3127 3127 3127 3127 3128 3128 3128 3129 3130 3131 3132 3134 3135 3136 3136 3137 3137 3137 3138 3138 3138 3138 3138 3138 3138 3138 3138 3138 3138 3138 3138 3137 3137 3137 3137 3136 3135 3134 3133 3133 3134 3134 3135
3118 3119 3120 3122 3123 3124 3126 3126 3127 3127 3128 3129 3129 3129 3130 3131 3132 3132 3132 3133 3133 3133 3132 3131 3130 3129 3128 3127 3126 3126 3126 3126 3126 3126 3126 3127 3127 3127 3127 3127 3127 3127 3127 3127 3127 3128 3128 3128 3128 3129 3129 3130 3132 3133 3134 3135 3135 3136 3136 3136 3137 3137 3137 3137 3137 3137 3137 3137 3137 3137 3137 3137 3136 3136 3135 3135 3135 3134 3133 3132 3132 3131 3131 3131 3133
3117 3118 3119 3120 3122 3123 3124 3125 3125 3126 3127 3128 3128 3128 3129 3130 3132 3132 3133 3134 3134 3133 3132 3131 3131 3130 3128 3128 3127 3127 3126 3126 3126 3126 3126 3126 3126 3126 3127 3127 3127 3127 3127 3128 3128 3128 3128 3128 3128 3129 3130 3130 3131 3132 3133 3134 3134 3135 3135 3135 3136 3136 3136 3136 3136 3136 3136 3136 3135 3135 3135 3135 3135 3134 3134 3133 3133 3132 3132 3132 3132 3131 3130 3130 3131